• In Russia
  • List of Countries
  • For 7 days
  • Water Temperature
  • Satellite Maps
  • Weather Map
  • Weather Widgets
  • user-avatar
    Login

    Hourly Weather Pilis

    Today, 24 August, Thursday

    Time Temperature Precipitation Wind Pressure Humidity
    00:00 +16°C° 0 mm 1 mps 751 mmHg 48%
    01:00 +16°C° 0 mm 1 mps 751 mmHg 49%
    02:00 +15°C° 0 mm 1 mps 751 mmHg 50%
    03:00 +15°C° 0 mm 1 mps 751 mmHg 51%
    04:00 +15°C° 0 mm 1 mps 751 mmHg 52%
    05:00 +16°C° 0 mm 1 mps 752 mmHg 48%
    06:00 +18°C° 0 mm 1 mps 752 mmHg 45%
    07:00 +19°C° 0 mm 1 mps 752 mmHg 42%
    08:00 +22°C° 0 mm 1 mps 752 mmHg 38%
    09:00 +24°C° 0 mm 2 mps 752 mmHg 34%
    10:00 +26°C° 0 mm 2 mps 752 mmHg 30%
    11:00 +27°C° 0 mm 3 mps 752 mmHg 29%
    12:00 +28°C° 0 mm 3 mps 752 mmHg 27%
    13:00 +30°C° 0 mm 3 mps 752 mmHg 25%
    14:00 +30°C° 0 mm 3 mps 751 mmHg 25%
    15:00 +30°C° 0 mm 3 mps 751 mmHg 24%
    16:00 +31°C° 0 mm 3 mps 751 mmHg 23%
    17:00 +29°C° 0 mm 2 mps 751 mmHg 27%
    18:00 +27°C° 0 mm 1 mps 751 mmHg 30%
    19:00 +23°C° 0 mm 0 mps 751 mmHg 34%
    20:00 +24°C° 0 mm 1 mps 751 mmHg 35%
    21:00 +23°C° 0 mm 1 mps 751 mmHg 37%
    22:00 +23°C° 0 mm 1 mps 751 mmHg 38%
    23:00 +21°C° 0 mm 2 mps 752 mmHg 40%

    Tomorrow, 25 August, Friday

    Time Temperature Precipitation Wind Pressure Humidity
    00:00 +21°C° 0 mm 2 mps 752 mmHg 42%
    01:00 +20°C° 0 mm 2 mps 752 mmHg 44%
    02:00 +20°C° 0 mm 2 mps 751 mmHg 46%
    03:00 +19°C° 0 mm 2 mps 751 mmHg 47%
    04:00 +20°C° 0 mm 1 mps 751 mmHg 49%
    05:00 +20°C° 0 mm 2 mps 752 mmHg 47%
    06:00 +21°C° 0 mm 2 mps 752 mmHg 45%
    07:00 +23°C° 0 mm 2 mps 752 mmHg 43%
    08:00 +26°C° 0 mm 2 mps 752 mmHg 38%
    09:00 +28°C° 0 mm 2 mps 752 mmHg 33%
    10:00 +31°C° 0 mm 2 mps 752 mmHg 29%
    11:00 +33°C° 0 mm 3 mps 752 mmHg 26%
    12:00 +35°C° 0 mm 3 mps 751 mmHg 24%
    13:00 +36°C° 0 mm 3 mps 751 mmHg 22%
    14:00 +36°C° 0 mm 3 mps 751 mmHg 21%
    15:00 +37°C° 0 mm 3 mps 750 mmHg 20%
    16:00 +37°C° 0 mm 3 mps 750 mmHg 20%
    17:00 +35°C° 0 mm 2 mps 750 mmHg 23%
    18:00 +32°C° 0 mm 2 mps 750 mmHg 27%
    19:00 +29°C° 0 mm 2 mps 750 mmHg 31%
    20:00 +28°C° 0 mm 2 mps 750 mmHg 33%
    21:00 +27°C° 0 mm 2 mps 750 mmHg 35%
    22:00 +26°C° 0 mm 3 mps 750 mmHg 37%
    23:00 +26°C° 0 mm 3 mps 750 mmHg 38%

    Day after tomorrow, 26 August, Saturday

    Time Temperature Precipitation Wind Pressure Humidity
    00:00 +25°C° 0 mm 3 mps 750 mmHg 39%
    01:00 +25°C° 0 mm 3 mps 750 mmHg 40%
    02:00 +24°C° 0 mm 2 mps 750 mmHg 42%
    03:00 +24°C° 0 mm 2 mps 750 mmHg 43%
    04:00 +23°C° 0 mm 2 mps 750 mmHg 45%
    05:00 +24°C° 0 mm 2 mps 750 mmHg 43%
    06:00 +25°C° 0 mm 1 mps 750 mmHg 41%
    07:00 +26°C° 0 mm 1 mps 751 mmHg 40%
    08:00 +28°C° 0 mm 1 mps 751 mmHg 36%
    09:00 +31°C° 0 mm 1 mps 751 mmHg 32%
    10:00 +33°C° 0 mm 1 mps 751 mmHg 28%
    11:00 +34°C° 0 mm 1 mps 751 mmHg 26%
    12:00 +36°C° 0 mm 2 mps 750 mmHg 24%
    13:00 +38°C° 0 mm 2 mps 750 mmHg 22%
    14:00 +38°C° 0 mm 2 mps 750 mmHg 21%
    15:00 +38°C° 0 mm 2 mps 749 mmHg 20%
    16:00 +38°C° 0 mm 2 mps 749 mmHg 20%
    17:00 +36°C° 0 mm 2 mps 749 mmHg 23%
    18:00 +33°C° 0 mm 1 mps 749 mmHg 26%
    19:00 +31°C° 0 mm 1 mps 749 mmHg 29%
    20:00 +30°C° 0 mm 2 mps 749 mmHg 30%
    21:00 +29°C° 0 mm 2 mps 749 mmHg 31%
    22:00 +28°C° 0 mm 2 mps 749 mmHg 32%
    23:00 +27°C° 0 mm 2 mps 749 mmHg 32%

    27 August, Sunday

    Time Temperature Precipitation Wind Pressure Humidity
    00:00 +26°C° 0 mm 2 mps 749 mmHg 33%
    01:00 +25°C° 0 mm 1 mps 749 mmHg 34%
    02:00 +25°C° 0 mm 1 mps 749 mmHg 35%
    03:00 +24°C° 0 mm 1 mps 749 mmHg 36%
    04:00 +23°C° 0 mm 1 mps 749 mmHg 37%
    05:00 +24°C° 0 mm 1 mps 749 mmHg 36%
    06:00 +25°C° 0 mm 1 mps 749 mmHg 34%
    07:00 +26°C° 0 mm 1 mps 750 mmHg 33%
    08:00 +29°C° 0 mm 2 mps 750 mmHg 29%
    09:00 +31°C° 0 mm 2 mps 750 mmHg 25%
    10:00 +35°C° 0 mm 2 mps 750 mmHg 21%
    11:00 +36°C° 0 mm 2 mps 750 mmHg 19%
    12:00 +38°C° 0 mm 2 mps 749 mmHg 17%
    13:00 +39°C° 0 mm 2 mps 749 mmHg 16%
    14:00 +39°C° 0 mm 2 mps 749 mmHg 16%
    15:00 +39°C° 0 mm 2 mps 748 mmHg 16%
    16:00 +39°C° 0 mm 1 mps 748 mmHg 16%
    17:00 +37°C° 0 mm 2 mps 748 mmHg 18%
    18:00 +35°C° 0 mm 2 mps 748 mmHg 21%
    19:00 +31°C° 0 mm 2 mps 748 mmHg 24%
    20:00 +30°C° 0.3 mm 2 mps 748 mmHg 26%
    21:00 +29°C° 0.3 mm 2 mps 748 mmHg 27%
    22:00 +28°C° 0.3 mm 2 mps 748 mmHg 28%
    23:00 +28°C° 0.1 mm 2 mps 748 mmHg 30%

    28 August, Monday

    Time Temperature Precipitation Wind Pressure Humidity
    00:00 +27°C° 0.1 mm 2 mps 748 mmHg 31%
    01:00 +26°C° 0.1 mm 2 mps 747 mmHg 32%
    02:00 +26°C° 0 mm 2 mps 747 mmHg 34%
    03:00 +25°C° 0 mm 2 mps 747 mmHg 36%
    04:00 +25°C° 0 mm 2 mps 747 mmHg 38%
    05:00 +26°C° 0 mm 2 mps 748 mmHg 38%
    06:00 +27°C° 0 mm 2 mps 748 mmHg 38%
    07:00 +27°C° 0 mm 2 mps 748 mmHg 39%
    08:00 +29°C° 0 mm 2 mps 748 mmHg 37%
    09:00 +31°C° 0 mm 2 mps 749 mmHg 35%
    10:00 +32°C° 0 mm 2 mps 749 mmHg 34%
    11:00 +34°C° 0 mm 3 mps 748 mmHg 32%
    12:00 +35°C° 0 mm 3 mps 748 mmHg 31%
    13:00 +35°C° 0 mm 3 mps 748 mmHg 30%
    14:00 +36°C° 0 mm 4 mps 748 mmHg 29%
    15:00 +36°C° 0 mm 4 mps 748 mmHg 29%
    16:00 +36°C° 0 mm 5 mps 747 mmHg 28%
    17:00 +34°C° 0 mm 4 mps 748 mmHg 33%
    18:00 +32°C° 0 mm 4 mps 748 mmHg 37%
    19:00 +29°C° 0 mm 3 mps 748 mmHg 42%
    20:00 +29°C° 0 mm 3 mps 748 mmHg 45%
    21:00 +28°C° 0 mm 3 mps 749 mmHg 48%
    22:00 +27°C° 0 mm 3 mps 749 mmHg 51%
    23:00 +26°C° 0 mm 3 mps 749 mmHg 54%

    29 August, Tuesday

    Time Temperature Precipitation Wind Pressure Humidity
    00:00 +25°C° 0 mm 3 mps 749 mmHg 56%
    01:00 +24°C° 0 mm 2 mps 749 mmHg 58%
    02:00 +24°C° 0 mm 2 mps 749 mmHg 61%
    03:00 +23°C° 0 mm 2 mps 749 mmHg 64%
    04:00 +21°C° 0 mm 2 mps 750 mmHg 67%
    05:00 +23°C° 0 mm 2 mps 750 mmHg 64%
    06:00 +24°C° 0 mm 2 mps 750 mmHg 61%
    07:00 +25°C° 0 mm 2 mps 750 mmHg 58%
    08:00 +26°C° 0 mm 2 mps 750 mmHg 52%
    09:00 +28°C° 0 mm 2 mps 750 mmHg 46%
    10:00 +30°C° 0 mm 2 mps 750 mmHg 40%
    11:00 +31°C° 0 mm 2 mps 750 mmHg 36%
    12:00 +32°C° 0 mm 2 mps 750 mmHg 33%
    13:00 +32°C° 0 mm 2 mps 749 mmHg 30%
    14:00 +34°C° 0 mm 2 mps 749 mmHg 29%
    15:00 +34°C° 0 mm 2 mps 749 mmHg 28%
    16:00 +34°C° 0 mm 2 mps 749 mmHg 28%
    17:00 +31°C° 0 mm 2 mps 749 mmHg 31%
    18:00 +30°C° 0 mm 2 mps 749 mmHg 35%
    19:00 +28°C° 0 mm 2 mps 749 mmHg 39%
    20:00 +27°C° 0 mm 2 mps 749 mmHg 41%
    21:00 +26°C° 0 mm 2 mps 749 mmHg 43%
    22:00 +25°C° 0 mm 2 mps 749 mmHg 45%
    23:00 +25°C° 0 mm 2 mps 749 mmHg 47%
    Show more